422  
ASUS43 KLMK 071210  
RWRKY  
KENTUCKY REGIONAL WEATHER ROUNDUP  
NATIONAL WEATHER SERVICE LOUISVILLE KY  
800 AM EDT THU JUL 07 2022  
 
NOTE "FAIR" INDICATES FEW OR NO CLOUDS BELOW 12,000 FEET  
WITH NO SIGNIFICANT WEATHER AND/OR S TO VISIBILITY
.  
 
KYZ001>023-026-027-061>063-070>075-071300-  
WESTERN AND SOUTH CENTRAL KENTUCKY  
 
CITY SKY/WX TMP DP RH WIND PRES REMARKS
 
PADUCAH SUNNY 80 75 84 SE5 29.97R  
HENDERSON PTSUNNY 75 75 100 CALM 29.98S FOG  
OWENSBORO MOSUNNY 77 74 90 NE3 29.97F  
HOPKINSVILLE SUNNY 80 79 99 CALM 29.98R  
BOWLING GREEN MOSUNNY 81 74 79 S5 29.99R  
GLASGOW MOSUNNY 78 75 90 CALM 30.00R  

 
 
KYZ024-025-028>034-038-045-046-053-071300-  
NORTH CENTRAL KENTUCKY  
 
CITY SKY/WX TMP DP RH WIND PRES REMARKS
 
LOUISVILLE/SDF CLOUDY 77 74 90 N7 29.99R FOG  
LOUISVILLE/LOU CLOUDY 77 73 87 NE6 29.99R FOG  
FORT KNOX MOSUNNY 76 76 99 N5 29.98R  

 
 
KYZ035>037-039>044-047>052-055>060-089>105-071300-  
NORTHEAST KENTUCKY  
 
CITY SKY/WX TMP DP RH WIND PRES REMARKS
 
LEXINGTON MOSUNNY 77 71 82 CALM 30.01R  
COVINGTON CLOUDY 74 72 93 NE8 30.01R  
FRANKFORT CLOUDY 73 71 93 NE5 30.00R  

 
 
KYZ054-064>069-076>088-106>120-071300-  
SOUTHEAST KENTUCKY  
 
CITY SKY/WX TMP DP RH WIND PRES REMARKS
 
JACKSON SUNNY 73 71 93 CALM 30.03S  
LONDON MOSUNNY 73 71 93 S3 30.03R  
SOMERSET PTSUNNY 75 73 94 CALM 30.00S  
MIDDLESBORO PTSUNNY 73 73 98 CALM 30.04S  
MONTICELLO MOSUNNY 74 50 43 CALM 30.03S  

 
 
 
 
CLICK HERE TO GO TO PREVIOUS BULLETINS.

The Nexlab KY Page Main Text Page